Flag for Switzerland Weather past 2 weeks in Oftringen, Aargau, Switzerland

Now
68 °F

Mild.


Feels Like: 68 °F
Forecast: 36 / 70 °F
Wind: 8 mph from North

Location: Wynau


UV Index: 3 (Moderate)

Visibility: N/A


Pressure: 29.96 "Hg

Humidity: 43%

Dew point: 45 °F

Location of OftringenLocation

Historic Weather in Oftringen

°F

Oftringen temperature yesterday

Maximum temperature yesterday: 67 °F (at 4:00 PM)
Minimum temperature yesterday: 42 °F (at 6:00 AM)
Average temperature yesterday: 54 °F

Past Weeks' High & Low Weather Summary

 TemperatureHumidityPressure
High71 °F (Apr 23, 5:00 PM)98% (Apr 11, 6:00 AM)30.38 "Hg (Apr 11, 6:00 AM)
Low32 °F (Apr 16, 6:00 AM)22% (Apr 17, 6:00 PM)29.60 "Hg (Apr 20, 6:00 PM)
Average50 °F68%30.03 "Hg
* Reported Apr 8 6:00 PM — Apr 23 6:00 PM, Oftringen, Weather by CustomWeather, © 2014

Note: Actual official high and low records may vary slightly from our data, if they occured in-between our weather recording intervals... More about our weather records

Advertising

Historic Weather Conditions — Data for Previous 24 hours

 ConditionsComfort  
Time TempWeatherWind HumidityBarometerVisibility
6:00 PM
Apr 23
68 °FMild.5 mph40%29.96 "HgN/A
5:00 PM71 °FMild.6 mph36%29.96 "HgN/A
4:00 PM69 °FMild.10 mph38%29.98 "HgN/A
3:00 PM70 °FMild.8 mph38%29.99 "HgN/A
2:00 PM69 °FMild.9 mph43%30.01 "HgN/A
1:00 PM67 °FMild.7 mph49%30.04 "HgN/A
12:00 PM64 °FMild.7 mph54%30.06 "HgN/A
11:00 AM60 °FCool.3 mph61%30.09 "HgN/A
10:00 AM57 °FCool.1 mph74%30.10 "HgN/A
9:00 AM53 °FCool.1 mph83%30.11 "HgN/A
8:00 AM50 °FCool.1 mph91%30.12 "HgN/A
7:00 AM47 °FCool.1 mph96%30.12 "HgN/A
6:00 AM47 °FCool.No wind97%30.11 "HgN/A
5:00 AM47 °FCool.No wind95%30.10 "HgN/A
4:00 AM48 °FCool.No wind92%30.09 "HgN/A
3:00 AM49 °FCool.2 mph88%30.09 "HgN/A
2:00 AM48 °FCool.3 mph94%30.08 "HgN/A
1:00 AM49 °FCool.1 mph93%30.05 "HgN/A
12:00 AM50 °FCool.1 mph91%30.03 "HgN/A
11:00 PM
Apr 22
50 °FCool.2 mph89%30.01 "HgN/A
10:00 PM54 °FCool.No wind83%29.99 "HgN/A
9:00 PM55 °FCool.2 mph74%29.97 "HgN/A
8:00 PM60 °FRefreshingly cool.8 mph59%29.93 "HgN/A
Weather by CustomWeather, © 2014

See weather overview